Weather reports worldwide

Advertisment
Vitoria, Spain (8080): temperature & dewpoint: 08.07.2020 12:00:00 - 14.07.2020 12:00:00 (CEST)Vitoria, Spain (8080): wind speed: 08.07.2020 12:00:00 - 14.07.2020 12:00:00 (CEST)Vitoria, Spain (8080): wind direction: 08.07.2020 12:00:00 - 14.07.2020 12:00:00 (CEST)Vitoria, Spain (8080): reduced air pressure: 08.07.2020 12:00:00 - 14.07.2020 12:00:00 (CEST)Vitoria, Spain (8080): visibility: 08.07.2020 12:00:00 - 14.07.2020 12:00:00 (CEST)
Date & Time tt [°C] td [°C] ff [km/h] ff [kn] dd ppp [hPa] vv [km]
14.07.2020 12:00:00 19,8 11,2 18 10 NNE 1020,1 -
14.07.2020 11:00:00 19,0 10,9 9 5 NNE 1020,8 30
14.07.2020 10:00:00 17,5 11,8 5 3 E 1021,4 -
14.07.2020 09:00:00 14,0 12,0 0 0 N 1022,4 17
14.07.2020 08:00:00 9,9 9,6 0 0 N 1023,6 16
14.07.2020 07:00:00 8,7 8,2 0 0 N 1023,7 -
14.07.2020 06:00:00 9,1 8,7 2 1 ENE 1024,0 -
14.07.2020 05:00:00 9,3 8,8 2 1 ENE 1023,9 12
14.07.2020 04:00:00 9,2 8,7 4 2 E 1024,4 -
14.07.2020 03:00:00 10,0 9,4 4 2 ENE 1024,5 -
14.07.2020 02:00:00 11,0 9,7 0 0 N 1024,6 25
14.07.2020 01:00:00 12,1 10,1 5 3 N 1024,7 -
14.07.2020 00:00:00 14,2 11,7 2 1 WSW 1024,5 -
13.07.2020 23:00:00 14,5 12,2 9 5 ENE 1024,4 27
13.07.2020 22:00:00 17,1 12,2 15 8 N 1023,3 -
13.07.2020 21:00:00 19,9 11,4 16 9 N 1022,7 -
13.07.2020 20:00:00 21,6 9,7 24 13 N 1022,2 30
13.07.2020 19:00:00 23,0 11,6 24 13 N 1021,5 -
13.07.2020 18:00:00 23,8 12,6 26 14 N 1021,4 -
13.07.2020 17:00:00 24,2 14,2 26 14 NNE 1021,3 29
13.07.2020 16:00:00 24,6 14,1 24 13 NNE 1021,6 -
13.07.2020 15:00:00 24,4 13,8 24 13 NNE 1021,9 27
13.07.2020 14:00:00 24,1 12,5 26 14 N 1022,3 27
13.07.2020 13:00:00 23,3 13,7 22 12 NNE 1022,7 -
13.07.2020 12:00:00 23,3 14,0 21 11 NE 1022,7 -
13.07.2020 11:00:00 20,8 13,5 5 3 ENE 1023,1 25
13.07.2020 10:00:00 19,3 13,6 4 2 ENE 1023,8 -
13.07.2020 09:00:00 17,6 14,4 4 2 E 1023,9 25
13.07.2020 08:00:00 14,2 13,3 0 0 N 1024,5 25
13.07.2020 07:00:00 12,0 11,4 5 3 E 1024,7 -
13.07.2020 06:00:00 12,3 12,0 4 2 E 1024,1 -
13.07.2020 05:00:00 12,3 11,8 0 0 N 1024,1 20
13.07.2020 04:00:00 13,2 12,1 8 4 NW 1024,0 -
13.07.2020 03:00:00 13,6 12,7 4 2 SSE 1023,9 -
13.07.2020 02:00:00 14,6 13,8 4 2 SSE 1023,4 20
13.07.2020 01:00:00 15,4 14,3 5 3 ESE 1022,9 -
13.07.2020 00:00:00 16,9 15,0 4 2 ENE 1022,4 -
12.07.2020 23:00:00 18,5 15,7 9 5 NE 1021,7 20
12.07.2020 22:00:00 20,1 16,0 16 9 NNW 1021,2 -
12.07.2020 21:00:00 20,9 16,4 11 6 WNW 1020,2 -
12.07.2020 20:00:00 21,8 16,4 16 9 N 1019,3 25
12.07.2020 19:00:00 23,4 17,8 22 12 NNE 1017,9 -
12.07.2020 18:00:00 25,5 18,3 21 11 N 1017,0 -
12.07.2020 17:00:00 25,4 18,8 28 15 NNE 1016,5 25
12.07.2020 16:00:00 28,8 17,9 5 3 E 1015,6 -
12.07.2020 15:00:00 27,5 18,3 5 3 SSE 1015,9 25
12.07.2020 14:00:00 26,0 17,7 13 7 ESE 1016,5 25
12.07.2020 13:00:00 22,5 17,3 8 4 ENE 1018,6 -
12.07.2020 12:00:00 20,4 17,2 9 5 ESE 1019,8 -
12.07.2020 11:00:00 18,4 16,5 8 4 WNW 1020,7 12
12.07.2020 10:00:00 16,0 15,5 8 4 NNW 1020,3 -
12.07.2020 09:00:00 15,6 14,8 4 2 N 1020,9 15
12.07.2020 08:00:00 15,3 14,4 16 9 E 1020,5 8
12.07.2020 07:00:00 15,1 13,8 11 6 W 1022,1 -
12.07.2020 06:00:00 15,1 13,1 8 4 N 1019,9 -
12.07.2020 05:00:00 13,5 12,8 2 1 W 1019,3 10
12.07.2020 04:00:00 13,9 12,9 4 2 NE 1019,0 -
12.07.2020 03:00:00 14,6 13,5 5 3 S 1019,6 -
12.07.2020 02:00:00 14,6 12,6 4 2 NNW 1020,1 10
12.07.2020 01:00:00 16,1 13,3 5 3 NNE 1020,7 -
12.07.2020 00:00:00 16,9 14,3 16 9 N 1020,6 -
11.07.2020 23:00:00 17,4 14,5 18 10 NNE 1020,4 12
11.07.2020 22:00:00 18,2 14,5 18 10 NNE 1019,7 -
11.07.2020 21:00:00 19,9 14,5 22 12 NNE 1019,2 -
11.07.2020 20:00:00 21,7 14,2 22 12 N 1018,6 25
11.07.2020 19:00:00 22,7 14,0 22 12 NNE 1018,2 -
11.07.2020 18:00:00 23,5 14,3 22 12 N 1018,4 -
11.07.2020 17:00:00 23,5 14,5 21 11 N 1018,8 30
11.07.2020 16:00:00 23,5 13,9 24 13 N 1019,0 -
11.07.2020 15:00:00 22,9 13,4 22 12 NNE 1019,7 25
11.07.2020 14:00:00 22,0 13,6 26 14 NNE 1020,4 25
11.07.2020 13:00:00 21,6 13,5 18 10 NNE 1020,8 -
11.07.2020 12:00:00 19,5 13,3 18 10 NNE 1021,3 -
11.07.2020 11:00:00 18,6 12,3 18 10 NNE 1021,7 20
11.07.2020 10:00:00 17,0 12,7 11 6 NE 1022,1 -
11.07.2020 09:00:00 16,0 13,0 5 3 N 1022,2 15
11.07.2020 08:00:00 15,2 12,5 9 5 NNE 1022,3 15
11.07.2020 07:00:00 14,6 12,7 4 2 E 1022,2 -
11.07.2020 06:00:00 14,8 12,3 5 3 NNW 1022,0 -
11.07.2020 05:00:00 14,7 12,0 0 0 N 1022,1 2,0
11.07.2020 04:00:00 14,9 12,7 8 4 NNE 1022,1 -
11.07.2020 03:00:00 15,0 12,7 8 4 N 1022,5 -
11.07.2020 02:00:00 15,0 12,7 4 2 N 1022,7 20
11.07.2020 01:00:00 15,6 12,7 11 6 N 1022,6 -
11.07.2020 00:00:00 15,8 13,3 16 9 N 1022,3 -
10.07.2020 23:00:00 15,9 13,9 13 7 NNE 1022,0 20
10.07.2020 22:00:00 16,2 14,2 13 7 NNE 1021,2 -
10.07.2020 21:00:00 16,8 14,6 13 7 NNE 1020,7 -
10.07.2020 20:00:00 17,3 14,4 15 8 NNE 1020,5 20
10.07.2020 19:00:00 17,7 14,9 21 11 NNE 1020,0 -
10.07.2020 18:00:00 18,3 14,4 24 13 NNE 1019,8 -
10.07.2020 17:00:00 19,2 14,0 22 12 N 1019,3 20
10.07.2020 16:00:00 19,8 14,6 22 12 NNE 1019,2 -
10.07.2020 15:00:00 20,3 15,6 16 9 NNE 1019,2 20
10.07.2020 14:00:00 19,5 15,2 21 11 N 1019,7 20
10.07.2020 13:00:00 20,0 15,4 26 14 NE 1019,6 -
10.07.2020 12:00:00 19,1 15,4 21 11 NNE 1019,6 -
10.07.2020 11:00:00 19,7 15,0 18 10 NNE 1019,3 20
10.07.2020 10:00:00 18,7 14,2 9 5 N 1019,6 -
10.07.2020 09:00:00 17,2 14,4 9 5 N 1019,9 10
10.07.2020 08:00:00 15,6 14,7 0 0 N 1020,1 5
10.07.2020 07:00:00 14,0 13,4 4 2 NE 1020,0 -
10.07.2020 06:00:00 13,7 12,9 5 3 NE 1020,0 -
10.07.2020 05:00:00 13,5 12,7 0 0 N 1020,2 15
10.07.2020 04:00:00 14,2 13,1 4 2 E 1020,0 -
10.07.2020 03:00:00 15,3 13,7 5 3 E 1020,1 -
10.07.2020 02:00:00 17,2 14,7 8 4 WNW 1020,4 15
10.07.2020 01:00:00 18,1 15,0 9 5 N 1020,5 -
10.07.2020 00:00:00 18,4 15,3 13 7 NNW 1019,9 -
09.07.2020 23:00:00 18,6 15,5 11 6 N 1019,2 15
09.07.2020 22:00:00 19,2 16,2 11 6 N 1018,5 -
09.07.2020 21:00:00 21,2 16,6 16 9 NNE 1017,4 -
09.07.2020 20:00:00 23,1 17,5 22 12 N 1016,8 20
09.07.2020 19:00:00 23,6 17,9 24 13 NNE 1016,4 -
09.07.2020 18:00:00 26,1 18,6 26 14 NNE 1015,6 -
09.07.2020 17:00:00 27,3 18,7 24 13 NNE 1015,2 20
09.07.2020 16:00:00 28,0 18,6 24 13 NE 1015,5 -
09.07.2020 15:00:00 28,2 18,8 16 9 N 1015,8 28
09.07.2020 14:00:00 27,6 17,2 13 7 NE 1016,2 22
09.07.2020 13:00:00 26,2 16,8 15 8 NNE 1016,7 -
09.07.2020 12:00:00 24,4 16,1 11 6 N 1017,6 -
09.07.2020 11:00:00 23,3 16,3 11 6 E 1017,5 22
09.07.2020 10:00:00 20,3 15,0 8 4 E 1018,2 -
09.07.2020 09:00:00 17,7 14,4 5 3 E 1018,4 20
09.07.2020 08:00:00 15,2 14,1 5 3 NNW 1019,1 20
09.07.2020 07:00:00 12,8 12,0 4 2 ENE 1019,0 -
09.07.2020 06:00:00 13,6 12,5 0 0 N 1018,2 -
09.07.2020 05:00:00 14,0 13,0 8 4 NE 1018,1 18
09.07.2020 04:00:00 15,0 13,2 5 3 NE 1018,2 -
09.07.2020 03:00:00 15,6 13,9 13 7 ENE 1018,2 -
09.07.2020 02:00:00 16,7 14,2 8 4 NNE 1019,0 17
09.07.2020 01:00:00 17,3 14,6 2 1 SW 1018,9 -
09.07.2020 00:00:00 19,1 14,5 8 4 W 1018,3 -
08.07.2020 23:00:00 19,8 14,9 11 6 NE 1017,0 17
08.07.2020 22:00:00 21,1 15,1 8 4 WNW 1015,9 -
08.07.2020 21:00:00 23,4 16,2 15 8 NW 1015,1 -
08.07.2020 20:00:00 25,3 17,7 21 11 N 1014,0 20
08.07.2020 19:00:00 25,8 17,8 21 11 N 1013,4 -
08.07.2020 18:00:00 28,3 18,5 22 12 NNE 1012,8 -
08.07.2020 17:00:00 28,7 18,0 22 12 NNE 1013,1 20
08.07.2020 16:00:00 28,7 17,4 18 10 NNE 1013,4 -
08.07.2020 15:00:00 28,4 17,3 13 7 N 1014,1 20
08.07.2020 14:00:00 26,9 15,2 11 6 NNE 1014,9 20
08.07.2020 13:00:00 25,7 14,8 13 7 NNE 1015,7 -
08.07.2020 12:00:00 23,9 14,2 8 4 N 1016,2 -

tt = temperature
td = dewpoint
ff = wind speed
dd = wind direction
ppp = reduced air pressure
vv = visibility

Next stations